Home > Weather > Modesto > Past weeks

Flag for USA Past Weather in Modesto, California, USA — Yesterday and Last 2 Weeks

Now
82 °F

Sunny.


Feels Like: 81 °F
Forecast: 72 / 108 °F
Wind: 7 mph from Northwest

Location: Modesto City-County-Sham Field

Current Time: Jul 28, 2016 at 9:30:45 AM

Latest Report: Jul 28, 2016 at 8:53 AM


Visibility: 10 mi

Pressure: 29.85 "Hg

Humidity: 35%

Dew Point: 52 °F

Location of ModestoLocation

Past Weather in Modesto — Graph

°F

Modesto Temperature Yesterday

Maximum temperature yesterday: 107 °F (at 4:53 PM)
Minimum temperature yesterday: 71 °F (at 5:53 AM)
Average temperature yesterday: 90 °F

High & Low Weather Summary for the Past Weeks

 TemperatureHumidityPressure
High107 °F (Jul 27, 4:53 PM)76% (Jul 24, 5:53 AM)30.07 "Hg (Jul 24, 5:53 AM)
Low60 °F (Jul 18, 5:53 AM)11% (Jul 13, 5:53 PM)29.75 "Hg (Jul 16, 5:53 PM)
Average82 °F34%29.89 "Hg
* Reported Jul 13 9:53 AM — Jul 28 7:53 AM, Modesto, Weather by CustomWeather, © 2016

Note: Actual official high and low records may vary slightly from our data, if they occured in-between our weather recording intervals... More about our weather records

Advertising

Modesto Weather History for the Previous 24 Hours

Scroll right to see more
 ConditionsComfort  
Time TempWeatherWind HumidityBarometerVisibility
7:53 AM
Thu, Jul 28
79 °FSunny.5 mph39%29.85 "Hg10 mi
6:53 AM76 °FClear.6 mph43%29.83 "Hg10 mi
5:53 AM76 °FClear.5 mph47%29.82 "Hg10 mi
4:53 AM76 °FClear.6 mph42%29.81 "Hg10 mi
3:53 AM77 °FClear.5 mph39%29.81 "Hg10 mi
2:53 AM79 °FClear.3 mph39%29.81 "Hg10 mi
1:53 AM80 °FClear.5 mph34%29.82 "Hg10 mi
12:53 AM84 °FClear.6 mph29%29.82 "Hg10 mi
11:53 PM
Wed, Jul 27
85 °FClear.5 mph26%29.82 "Hg10 mi
10:53 PM87 °FClear.8 mph22%29.81 "Hg10 mi
9:53 PM91 °FClear.9 mph19%29.82 "Hg10 mi
8:53 PM95 °FSunny.8 mph16%29.80 "Hg10 mi
7:53 PM98 °FSunny.8 mph16%29.79 "Hg10 mi
6:53 PM102 °FSunny.14 mph13%29.78 "Hg10 mi
5:53 PM105 °FSunny.14 mph13%29.78 "Hg9 mi
4:53 PM107 °FPassing clouds.10 mph13%29.78 "Hg10 mi
3:53 PM106 °FSunny.10 mph13%29.79 "Hg10 mi
2:53 PM104 °FSunny.8 mph13%29.81 "Hg10 mi
1:53 PM103 °FSunny.8 mph15%29.83 "Hg10 mi
12:53 PM100 °FSunny.7 mph17%29.84 "Hg10 mi
11:53 AM96 °FSunny.7 mph18%29.85 "Hg10 mi
10:53 AM93 °FSunny.8 mph18%29.86 "Hg10 mi
9:53 AM89 °FSunny.5 mph22%29.86 "Hg10 mi
Weather by CustomWeather, © 2016

See weather overviewHow to use our weather pages